Miscellaneous Local Product
Issued by NWS Hastings, NE

Home | Current Version | Previous Version | Text Only | Print | Product List | Glossary Off
Versions: 1 2 3 4 5 6 7 8 9 10 11 12 13 14 15 16 17 18 19 20 21 22 23 24 25 26 27 28 29 30 31 32 33 34 35 36 37 38 39 40 41 42 43 44 45 46 47 48 49 50

097
AXUS43 KGID 120702
MISGRI

GID CWA HOURLY WEATHER ROUNDUP
NATIONAL WEATHER SERVICE HASTINGS NE
100 AM CST FRI FEB 12 2016

NOTE: "FAIR" INDICATES FEW OR NO CLOUDS BELOW 12,000 FEET WITH NO
SIGNIFICANT WEATHER AND/OR OBSTRUCTIONS TO VISIBILITY.

...SOUTH CENTRAL NEBRASKA...

CITY           SKY/WX    TMP DP  RH WIND       PRES   REMARKS
GRAND ISLAND   MOCLDY    30  25  81 N15       30.24R WCI  19
HASTINGS       CLOUDY    31  27  85 N17       30.21F WCI  19
KEARNEY        MOCLDY    30  28  93 N9        30.22R WCI  22
ORD            CLOUDY    29  25  85 NW13      30.23R WCI  19
YORK           MOCLDY    25  25 100 N7        30.20R FOG     WCI  17
AURORA         CLOUDY    29  28  94 N13       30.21R WCI  19
LEXINGTON      CLEAR     33  29  83 N8        30.22S WCI  26
HOLDREGE       CLEAR     32  28  87 N7        30.21R WCI  25
HEBRON         PTCLDY    31  28  89 N13       30.20S WCI  21

...NEBRASKA PANHANDLE...

CITY           SKY/WX    TMP DP  RH WIND       PRES   REMARKS
CHADRON        CLOUDY    26  23  88 W3        30.26R
ALLIANCE       PTCLDY    30  27  88 W6        30.22R WCI  24
SCOTTSBLUFF    CLOUDY    31  26  82 N6        30.24S WCI  25
SIDNEY         CLEAR     31  26  82 NW12      30.23S WCI  22

...WESTERN AND NORTH CENTRAL NEBRASKA...

CITY           SKY/WX    TMP DP  RH WIND       PRES   REMARKS
VALENTINE      CLOUDY    30  27  88 NW5       30.23S WCI  25
AINSWORTH      CLOUDY    30  28  92 NW5       30.23S WCI  25
ONEILL         CLOUDY    27  26  93 NW8       30.23S WCI  19
BROKEN BOW     CLOUDY    32  29  88 N12       30.21F WCI  23
IMPERIAL       CLOUDY    32  27  81 N8        30.23S WCI  25
NORTH PLATTE   CLOUDY    32  27  81 W7        30.22S WCI  26
MCCOOK         CLOUDY    33  28  81 SW9       30.23R WCI  25

...EASTERN NEBRASKA...

CITY           SKY/WX    TMP DP  RH WIND       PRES   REMARKS
NORFOLK        CLOUDY    27  23  85 NW9       30.22S WCI  18
SO SIOUX CITY  CLOUDY    19  15  84 N9        30.26S WCI   8
TEKAMAH        CLOUDY    21  18  88 NW5       30.25S WCI  15
COLUMBUS       CLOUDY    27  18  69 NW9       30.23S WCI  17
ALBION         CLOUDY    27  24  85 N9        30.23R WCI  18
OMAHA EPPLEY   CLOUDY    24  20  84 N8        30.24S WCI  15
OFFUTT AFB     CLOUDY    26  20  80 N6        30.22S WCI  19
MILLARD        CLOUDY    27  20  76 CALM      30.23S
LINCOLN        CLOUDY    29  25  85 N5        30.22F FOG     WCI  24
NEBRASKA CITY  CLOUDY    30  26  85 N5        30.20F WCI  25
BEATRICE       CLOUDY    29  27  90 CALM      30.20R
FALLS CITY     CLOUDY    31  22  69 NE6       30.20S WCI  25

...NORTHERN KANSAS...

CITY           SKY/WX    TMP DP  RH WIND       PRES   REMARKS
GOODLAND       CLOUDY    32  26  78 NW12      30.24S WCI  23
HILL CITY      NOT AVBL
NORTON         SUNNY     34  27  75 W6        30.22  WCI  29
SMITH CENTER   CLEAR     27  27 100 CALM      30.21R
BELOIT         CLEAR     25  23  93 CALM      30.21R
RUSSELL        CLEAR     29  27  92 NW9       30.18R WCI  20
CONCORDIA      CLEAR     28  24  85 NW8       30.19R WCI  20
SALINA         CLEAR     30  24  78 N7        30.20R WCI  23
TOPEKA         CLEAR     29  22  75 CALM      30.19R



USA.gov is the U.S. government's official web portal to all federal, state and local government web resources and services.